[[{"header":{"parameterUnit":"m.s-1","parameterCategory":1,"la1":30.2991,"la2":30.254,"lo1":-89.0895,"lo2":-89.0444,"dy":0.0017,"dx":0.0017,"nx":28,"ny":28,"refTime":"2023-11-07T09:00:00:Z","depth":0,"parameterNumber":2,"parameterNumberName":"U-component_of_WINDS"},"data":[0,0,0,0,0,0,0,0,0,0,0,0,0,0,0,0,0,0,0,0,0,0,0,0,0,0,0,0,0,0,0,0,0,0,0,0,0,0,0,0,0,0,0,0,0,0,0,0,0,0,0,0,0,0,0,0,0,0,-0.2211,-0.221,0,-0.2137,-0.2136,-0.2135,-0.212,-0.212,-0.2121,-0.2122,-0.2042,-0.2039,-0.2037,0,0,0,0,0,0,0,0,0,0,0,0,0,-0.2335,-0.2333,-0.2211,-0.221,-0.2209,-0.2137,-0.2136,-0.2135,-0.212,-0.2121,-0.2121,-0.2122,-0.2043,-0.204,-0.2036,0,0,0,0,0,0,0,0,0,0,0,0,0,-0.2273,-0.2333,-0.2211,-0.2193,-0.2191,-0.2137,-0.2136,-0.2134,-0.212,-0.2121,-0.2121,-0.2122,-0.2044,-0.204,-0.2036,-0.1994,0,0,-0.2024,-0.2022,0,0,0,0,0,0,0,0,-0.2277,-0.2269,-0.2197,-0.2194,-0.2191,-0.2139,-0.215,-0.2087,-0.2119,-0.2146,-0.2122,-0.2123,-0.2073,-0.2067,-0.2051,-0.199,-0.1987,-0.2023,-0.2021,-0.2019,-0.2018,0,0,0,0,0,0,0,-0.2281,-0.2272,-0.2181,-0.2196,-0.2192,-0.2187,-0.2179,-0.2138,-0.2106,-0.2144,-0.2143,-0.2135,-0.2072,-0.2055,-0.2049,-0.1986,-0.2023,-0.202,-0.2017,-0.2016,-0.1885,-0.1884,0,0,0,0,0,0,-0.2289,-0.2275,-0.2184,-0.2179,-0.2237,-0.2184,-0.2175,-0.2155,-0.2106,-0.21,-0.2134,-0.2134,-0.2061,-0.2053,-0.2046,-0.1992,-0.2019,-0.2016,-0.2013,-0.1886,-0.1885,-0.1884,0,0,0,0,0,0,-0.2292,-0.2281,-0.2187,-0.2227,-0.2215,-0.2181,-0.2158,-0.2153,-0.2136,-0.2098,-0.2092,-0.2123,-0.2061,-0.2052,-0.2007,-0.199,-0.2014,-0.201,-0.1887,-0.1886,-0.1884,-0.1886,0,0,0,0,0,0,-0.2296,-0.2282,-0.2267,-0.2227,-0.2213,-0.215,-0.2157,-0.2151,-0.2129,-0.2129,-0.2086,-0.208,-0.2061,-0.2013,-0.2003,-0.1984,-0.2007,-0.1889,-0.1887,-0.1885,-0.1887,-0.1885,-0.1882,0,0,0,0,0,-0.23,-0.227,-0.2266,-0.2255,-0.2193,-0.2149,-0.2141,-0.2121,-0.2128,-0.2111,-0.2087,-0.2081,-0.1993,-0.2008,-0.1997,-0.1977,-0.189,-0.1887,-0.1885,-0.1888,-0.1885,-0.1882,0,0,0,0,0,0,-0.2308,-0.2264,-0.226,-0.2216,-0.2187,-0.2147,-0.2126,-0.2119,-0.2086,-0.2087,-0.2063,-0.2053,-0.2009,-0.1989,-0.2007,-0.1933,-0.1942,-0.1937,-0.1948,-0.1945,-0.1942,-0.1948,-0.2004,0,0,0,0,0,-0.2305,-0.2274,-0.2237,-0.2202,-0.2188,-0.2159,-0.214,-0.2127,-0.2095,-0.2082,-0.2055,-0.2023,-0.1988,-0.1965,-0.1931,-0.1884,-0.1874,-0.1865,-0.1863,-0.1861,-0.1856,-0.1829,-0.1824,-0.1876,-0.1876,-0.1876,0,0,-0.2298,-0.227,-0.2252,-0.2203,-0.2179,-0.2146,-0.2149,-0.2115,-0.209,-0.2077,-0.2033,-0.2012,-0.1974,-0.1928,-0.1906,-0.1909,-0.184,-0.1858,-0.1856,-0.1853,-0.1826,-0.1821,-0.1817,-0.1874,-0.1874,-0.1875,0,0,-0.2268,-0.2245,-0.2212,-0.2188,-0.2151,-0.2133,-0.2125,-0.2086,-0.2072,-0.2028,-0.2016,-0.1986,-0.1927,-0.19,-0.1879,-0.1838,-0.183,-0.1827,-0.1814,-0.1787,-0.1783,-0.178,-0.1764,-0.1759,-0.1823,-0.1823,-0.1823,0,-0.2263,-0.2215,-0.2196,-0.2162,-0.214,-0.2128,-0.2094,-0.2071,-0.2025,-0.2009,-0.2014,-0.1938,-0.1912,-0.1859,-0.1849,-0.1833,-0.1822,-0.1832,-0.1786,-0.1782,-0.1778,-0.1763,-0.1757,-0.1823,-0.1823,-0.1823,-0.1823,0,-0.2211,-0.2177,-0.2155,-0.2112,-0.2088,-0.2054,-0.2028,-0.2006,-0.1995,-0.1975,-0.193,-0.1898,-0.1857,-0.1843,-0.1832,-0.1788,-0.1791,-0.1791,-0.1799,-0.1773,-0.1758,-0.1752,-0.1823,-0.1823,-0.1823,-0.1823,0,0,-0.2184,-0.213,-0.2122,-0.2102,-0.2061,-0.2034,-0.1999,-0.1959,-0.194,-0.1908,-0.1877,-0.1827,-0.1826,-0.1802,-0.1788,-0.1764,-0.1732,-0.1767,-0.1766,-0.1761,-0.168,-0.168,-0.1674,-0.1728,-0.1726,-0.1726,-0.1683,0,-0.2148,-0.2087,-0.2068,-0.2016,-0.1984,-0.1972,-0.1941,-0.1911,-0.1891,-0.186,-0.1838,-0.1802,-0.1805,-0.179,-0.1767,-0.1742,-0.1716,-0.1744,-0.1697,-0.1695,-0.1706,-0.1666,-0.1666,-0.1627,-0.1677,-0.1676,-0.1675,0,-0.2099,-0.2067,-0.2012,-0.1974,-0.196,-0.1933,-0.1894,-0.1865,-0.1831,-0.1818,-0.1791,-0.1778,-0.1739,-0.175,-0.1695,-0.1715,-0.1694,-0.1679,-0.1677,-0.1671,-0.1684,-0.1658,-0.1615,-0.1608,-0.1666,-0.1667,-0.1668,0,-0.2084,-0.2027,-0.1987,-0.197,-0.1924,-0.1905,-0.1885,-0.1851,-0.1828,-0.1795,-0.1779,-0.1741,-0.172,-0.1689,-0.1666,-0.1676,-0.1613,-0.1622,-0.16,-0.16,-0.1586,-0.1587,-0.1538,-0.1575,-0.1575,-0.1575,-0.1575,0,-0.2046,-0.2012,-0.1979,-0.1954,-0.1916,-0.1894,-0.1856,-0.1835,-0.1805,-0.1774,-0.176,-0.1732,-0.1703,-0.167,-0.1652,-0.1608,-0.1599,-0.1586,-0.1582,-0.1587,-0.1589,-0.1573,-0.1574,-0.1573,-0.1574,-0.1574,-0.1574,0,-0.2022,-0.1999,-0.1954,-0.1914,-0.1903,-0.1877,-0.1842,-0.1816,-0.1796,-0.1758,-0.1747,-0.1715,-0.1675,-0.1649,-0.1598,-0.1586,-0.1538,-0.1534,-0.155,-0.1548,-0.1527,-0.1528,-0.1464,-0.1454,-0.1499,-0.1498,-0.1498,0,-0.1999,-0.1973,-0.1931,-0.191,-0.189,-0.1857,-0.1833,-0.181,-0.1786,-0.1744,-0.1723,-0.1683,-0.165,-0.1587,-0.1557,-0.1518,-0.1513,-0.1493,-0.1507,-0.1513,-0.1511,-0.1512,-0.1509,-0.1491,-0.149,-0.149,-0.149,0,-0.196,-0.195,-0.1918,-0.1881,-0.1854,-0.1823,-0.1793,-0.1776,-0.1747,-0.1721,-0.1681,-0.1655,-0.1603,-0.1563,-0.152,-0.1498,-0.1488,-0.1486,-0.1478,-0.1483,-0.1493,-0.1486,-0.1543,-0.1487,-0.1487,-0.1488,-0.1488,-0.1488,-0.1935,-0.1911,-0.1878,-0.1842,-0.1817,-0.1788,-0.1762,-0.1738,-0.1705,-0.1662,-0.165,-0.1608,-0.1572,-0.1515,-0.1491,-0.1457,-0.1459,-0.1448,-0.1445,-0.1443,-0.1442,-0.1499,-0.1449,-0.1449,-0.1449,-0.1449,-0.1449,0,-0.1895,-0.1873,-0.184,-0.1798,-0.1769,-0.1764,-0.173,-0.1706,-0.1669,-0.1637,-0.1605,-0.1558,-0.1518,-0.1486,-0.1445,-0.1423,-0.1417,-0.1413,-0.1414,-0.1408,-0.1443,-0.1453,-0.1418,-0.1418,-0.1418,-0.1418,-0.1418,-0.1418,-0.187,-0.1829,-0.1814,-0.176,-0.1737,-0.1697,-0.1677,-0.165,-0.1625,-0.1573,-0.1541,-0.1521,-0.1488,-0.1444,-0.1407,-0.1398,-0.1383,-0.1379,-0.1369,-0.1402,-0.1406,-0.1409,-0.1418,-0.1376,-0.1376,-0.1337,-0.1337,-0.1336]},{"header":{"parameterUnit":"m.s-1","parameterCategory":1,"la1":30.2991,"la2":30.254,"lo1":-89.0895,"lo2":-89.0444,"dy":0.0017,"dx":0.0017,"nx":28,"ny":28,"refTime":"2023-11-07T09:00:00:Z","depth":0,"parameterNumber":3,"parameterNumberName":"V-component_of_WINDS"},"data":[0,0,0,0,0,0,0,0,0,0,0,0,0,0,0,0,0,0,0,0,0,0,0,0,0,0,0,0,0,0,0,0,0,0,0,0,0,0,0,0,0,0,0,0,0,0,0,0,0,0,0,0,0,0,0,0,0,0,1.6155,1.6155,0,1.6146,1.6146,1.6146,1.6079,1.6077,1.6076,1.6074,1.6067,1.6068,1.607,0,0,0,0,0,0,0,0,0,0,0,0,0,1.6116,1.6117,1.6155,1.6155,1.6155,1.6146,1.6146,1.6146,1.6079,1.6077,1.6075,1.6073,1.6067,1.6068,1.607,0,0,0,0,0,0,0,0,0,0,0,0,0,1.6123,1.6117,1.6155,1.612,1.6117,1.6146,1.6146,1.6146,1.608,1.6077,1.6075,1.6072,1.6066,1.6068,1.607,1.6132,0,0,1.6076,1.6077,0,0,0,0,0,0,0,0,1.6122,1.6124,1.6125,1.6123,1.6119,1.6111,1.613,1.6141,1.608,1.6094,1.6074,1.6071,1.6084,1.6084,1.6088,1.6132,1.6132,1.6076,1.6078,1.6079,1.6079,0,0,0,0,0,0,0,1.6122,1.6124,1.6151,1.6126,1.6122,1.6106,1.6104,1.6132,1.6103,1.6092,1.6088,1.6087,1.6082,1.6086,1.6087,1.6132,1.6076,1.6078,1.6079,1.608,1.6229,1.6231,0,0,0,0,0,0,1.6126,1.6124,1.6152,1.6151,1.6115,1.6109,1.6107,1.6116,1.6102,1.6098,1.609,1.6084,1.6084,1.6085,1.6087,1.6161,1.6079,1.608,1.6082,1.6226,1.6229,1.6232,0,0,0,0,0,0,1.6126,1.6129,1.6152,1.6136,1.6138,1.6112,1.6123,1.6117,1.6122,1.61,1.6095,1.61,1.6082,1.6084,1.6122,1.6159,1.6081,1.6083,1.6223,1.6227,1.6231,1.6308,0,0,0,0,0,0,1.6125,1.6129,1.6152,1.6137,1.6139,1.6187,1.6125,1.6119,1.6125,1.6119,1.6108,1.6104,1.608,1.6119,1.6124,1.6161,1.6085,1.6219,1.6224,1.6229,1.6302,1.6314,1.6324,0,0,0,0,0,1.6124,1.6174,1.6154,1.6157,1.6167,1.6189,1.619,1.6161,1.6129,1.6152,1.6138,1.6104,1.6154,1.6124,1.6128,1.6166,1.6217,1.6223,1.6229,1.6296,1.6311,1.6324,0,0,0,0,0,0,1.6194,1.6171,1.6148,1.6195,1.6195,1.6177,1.6206,1.6177,1.6186,1.6179,1.6144,1.6142,1.6186,1.6179,1.6146,1.6227,1.618,1.6187,1.623,1.6243,1.6255,1.6256,1.6086,0,0,0,0,0,1.6215,1.6234,1.6213,1.6257,1.6257,1.6232,1.624,1.6218,1.6216,1.6216,1.6204,1.6204,1.622,1.6231,1.6244,1.63,1.6298,1.6329,1.634,1.6349,1.6357,1.6388,1.6402,1.6252,1.6252,1.6252,0,0,1.6258,1.6248,1.6262,1.6271,1.6267,1.6289,1.6232,1.6257,1.6273,1.6219,1.6255,1.6247,1.6245,1.6292,1.6313,1.6288,1.6397,1.6357,1.6365,1.6367,1.6395,1.641,1.6422,1.6256,1.6256,1.6255,0,0,1.6349,1.6342,1.6379,1.6377,1.6373,1.6356,1.6365,1.6352,1.6345,1.638,1.6341,1.636,1.6387,1.6388,1.6391,1.6484,1.6454,1.6489,1.6549,1.658,1.6591,1.6602,1.6637,1.6649,1.6496,1.6497,1.6497,0,1.6403,1.6434,1.6401,1.6429,1.6435,1.6387,1.6425,1.6425,1.6426,1.6431,1.6404,1.6438,1.6433,1.6481,1.6504,1.6508,1.6519,1.6491,1.6592,1.6602,1.6611,1.6644,1.6657,1.6501,1.6501,1.65,1.65,0,1.6502,1.6524,1.6554,1.6556,1.6565,1.6597,1.6571,1.6584,1.6562,1.6548,1.6586,1.6578,1.659,1.6599,1.6577,1.6645,1.663,1.6598,1.655,1.6631,1.6661,1.6673,1.6507,1.6506,1.6504,1.6503,0,0,1.6636,1.6621,1.6633,1.6634,1.6626,1.6643,1.6674,1.6686,1.6699,1.6701,1.6727,1.6752,1.6723,1.6728,1.6706,1.6732,1.6809,1.6697,1.6697,1.672,1.6885,1.691,1.6925,1.6788,1.6791,1.6792,1.6886,0,1.6724,1.6776,1.6749,1.6805,1.6826,1.6782,1.681,1.6809,1.6797,1.6814,1.6801,1.682,1.6779,1.6782,1.6806,1.6794,1.6842,1.6787,1.6814,1.6816,1.6818,1.6941,1.6967,1.7056,1.6897,1.6899,1.6901,0,1.6834,1.6842,1.69,1.6891,1.6898,1.6923,1.6933,1.6949,1.6948,1.6937,1.6943,1.6916,1.6947,1.6899,1.6943,1.6906,1.6916,1.6912,1.6915,1.6917,1.6864,1.6948,1.7083,1.7097,1.6919,1.6917,1.6916,0,1.6928,1.6953,1.6991,1.6993,1.6983,1.7002,1.6999,1.6995,1.7004,1.7013,1.7019,1.703,1.7037,1.7048,1.7025,1.6992,1.7073,1.7022,1.7066,1.7067,1.7086,1.7086,1.7226,1.709,1.709,1.709,1.709,0,1.703,1.7068,1.7034,1.7058,1.7099,1.7068,1.7111,1.7103,1.71,1.7123,1.7085,1.7107,1.7075,1.7094,1.7076,1.7116,1.7119,1.7113,1.7108,1.7117,1.7119,1.7124,1.7118,1.7093,1.7092,1.7092,1.7091,0,1.7142,1.7121,1.716,1.7148,1.7145,1.7177,1.7166,1.7189,1.7175,1.7204,1.7209,1.7188,1.7209,1.7187,1.7206,1.7194,1.7249,1.7234,1.7249,1.7246,1.7292,1.7289,1.7442,1.7462,1.7312,1.7313,1.7315,0,1.7209,1.7238,1.7228,1.7241,1.724,1.726,1.727,1.724,1.7252,1.7254,1.7277,1.7295,1.7307,1.7343,1.733,1.7346,1.7332,1.7385,1.7334,1.7343,1.7335,1.7334,1.7338,1.7395,1.7397,1.7399,1.74,0,1.7332,1.732,1.7335,1.7347,1.7359,1.7367,1.7372,1.7385,1.7355,1.737,1.7391,1.7401,1.7421,1.7441,1.7452,1.7449,1.7421,1.7416,1.7427,1.7438,1.7446,1.7444,1.7279,1.7413,1.7411,1.741,1.741,1.7409,1.7424,1.7448,1.7446,1.7465,1.7466,1.7472,1.7493,1.7482,1.7499,1.7513,1.7495,1.7522,1.7522,1.7534,1.7535,1.7557,1.7535,1.7551,1.7555,1.756,1.7568,1.7442,1.7559,1.7558,1.7558,1.7557,1.7557,0,1.7546,1.7543,1.756,1.7569,1.7584,1.7555,1.756,1.7575,1.7598,1.7601,1.7614,1.764,1.7659,1.7647,1.7664,1.7683,1.7671,1.7689,1.7688,1.7688,1.7585,1.7575,1.7699,1.7699,1.7699,1.7699,1.7699,1.7699,1.7611,1.7651,1.7639,1.768,1.7676,1.7702,1.7708,1.7714,1.7716,1.7746,1.7761,1.7754,1.7751,1.7767,1.7784,1.778,1.7789,1.7812,1.7804,1.7709,1.7695,1.7682,1.7672,1.7814,1.7814,1.7905,1.7906,1.7906]}]]